Location: Clyde
(45.1830°S, 169.3170°E)
Time: 09:40:56
(UTC+13:00)

SPOT 3 Rocket - Pass Details

Date: 24 January 2019
Orbit: 780 x 794 km, 98.8° (Epoch: 19 February)

Event Time Altitude Azimuth Distance (km) Brightness Sun altitude
Rises 21:56:40 0° 165° (SSE) 3,322 7.1 -6.0°
Reaches altitude 10° 21:59:02 10° 163° (SSE) 2,383 6.3 -6.3°
Maximum altitude 22:04:18 78° 76° (ENE) 816 3.6 -7.1°
Drops below altitude 10° 22:09:29 10° 349° (N) 2,344 5.8 -7.8°
Sets 22:11:47 0° 348° (NNW) 3,262 6.5 -8.1°
